����������;��������(kVARh)
2016-12-05 00:00;4,55
2016-12-05 00:15;5,6
2016-12-05 00:30;5,95
2016-12-05 00:45;2,1
2016-12-05 01:00;2,7
2016-12-05 01:15;2,9
2016-12-05 01:30;3,7
2016-12-05 01:45;4,9
2016-12-05 02:00;5,35
2016-12-05 02:15;6
2016-12-05 02:30;12,5
2016-12-05 02:45;11,45
2016-12-05 03:00;15,15
2016-12-05 03:15;15,15
2016-12-05 03:30;13,8
2016-12-05 03:45;14,9
2016-12-05 04:00;14,2
2016-12-05 04:15;13,75
2016-12-05 04:30;16,55
2016-12-05 04:45;14,85
2016-12-05 05:00;13,05
2016-12-05 05:15;13,4
2016-12-05 05:30;12,2
2016-12-05 05:45;13,95
2016-12-05 06:00;13,15
2016-12-05 06:15;14,4
2016-12-05 06:30;12,15
2016-12-05 06:45;9,7
2016-12-05 07:00;9
2016-12-05 07:15;12,25
2016-12-05 07:30;20,35
2016-12-05 07:45;24
2016-12-05 08:00;23,7
2016-12-05 08:15;23,5
2016-12-05 08:30;23,2
2016-12-05 08:45;26,55
2016-12-05 09:00;30,9
2016-12-05 09:15;38,45
2016-12-05 09:30;48,65
2016-12-05 09:45;44,1
2016-12-05 10:00;49,9
2016-12-05 10:15;45,15
2016-12-05 10:30;48,8
2016-12-05 10:45;48,1
2016-12-05 11:00;54,7
2016-12-05 11:15;61,65
2016-12-05 11:30;60,75
2016-12-05 11:45;69,7
2016-12-05 12:00;71,4
2016-12-05 12:15;63
2016-12-05 12:30;61,5
2016-12-05 12:45;62,55
2016-12-05 13:00;65,95
2016-12-05 13:15;65,2
2016-12-05 13:30;61,5
2016-12-05 13:45;55,8
2016-12-05 14:00;59,1
2016-12-05 14:15;55,65
2016-12-05 14:30;50,45
2016-12-05 14:45;53,4
2016-12-05 15:00;47
2016-12-05 15:15;47,7
2016-12-05 15:30;47
2016-12-05 15:45;55,35
2016-12-05 16:00;46,95
2016-12-05 16:15;42,7
2016-12-05 16:30;43,55
2016-12-05 16:45;40,95
2016-12-05 17:00;38,5
2016-12-05 17:15;35,75
2016-12-05 17:30;30,1
2016-12-05 17:45;34,15
2016-12-05 18:00;30,55
2016-12-05 18:15;22,4
2016-12-05 18:30;18,65
2016-12-05 18:45;21,8
2016-12-05 19:00;21,5
2016-12-05 19:15;17,35
2016-12-05 19:30;17,6
2016-12-05 19:45;16,8
2016-12-05 20:00;18,8
2016-12-05 20:15;19,25
2016-12-05 20:30;18,4
2016-12-05 20:45;18,1
2016-12-05 21:00;18,35
2016-12-05 21:15;16,4
2016-12-05 21:30;19,3
2016-12-05 21:45;17,95
2016-12-05 22:00;13,6
2016-12-05 22:15;16,3
2016-12-05 22:30;14,8
2016-12-05 22:45;18,85
2016-12-05 23:00;22,55
2016-12-05 23:15;19,9
2016-12-05 23:30;19,5
2016-12-05 23:45;20,4
2016-12-06 00:00;12,3
2016-12-06 00:15;14,9
2016-12-06 00:30;15,05
2016-12-06 00:45;16,95
2016-12-06 01:00;17,7
2016-12-06 01:15;13,1
2016-12-06 01:30;14,6
2016-12-06 01:45;16,25
2016-12-06 02:00;19,4
2016-12-06 02:15;17,1
2016-12-06 02:30;18,3
2016-12-06 02:45;18,85
2016-12-06 03:00;16,7
2016-12-06 03:15;14,95
2016-12-06 03:30;14,25
2016-12-06 03:45;15,15
2016-12-06 04:00;15,45
2016-12-06 04:15;15,45
2016-12-06 04:30;16,7
2016-12-06 04:45;16,85
2016-12-06 05:00;17,05
2016-12-06 05:15;16,15
2016-12-06 05:30;15,4
2016-12-06 05:45;16,55
2016-12-06 06:00;16,25
2016-12-06 06:15;15,7
2016-12-06 06:30;13
2016-12-06 06:45;12,25
2016-12-06 07:00;10,8
2016-12-06 07:15;9,9
2016-12-06 07:30;7,75
2016-12-06 07:45;21,35
2016-12-06 08:00;10,35
2016-12-06 08:15;15,1
2016-12-06 08:30;23,65
2016-12-06 08:45;34,6
2016-12-06 09:00;35,7
2016-12-06 09:15;38,35
2016-12-06 09:30;42,05
2016-12-06 09:45;44,25
2016-12-06 10:00;58,65
2016-12-06 10:15;58,65
2016-12-06 10:30;61,1
2016-12-06 10:45;66,65
2016-12-06 11:00;53,95
2016-12-06 11:15;56,2
2016-12-06 11:30;56,4
2016-12-06 11:45;49,35
2016-12-06 12:00;51,05
2016-12-06 12:15;50,45
2016-12-06 12:30;48,95
2016-12-06 12:45;55,4
2016-12-06 13:00;54,4
2016-12-06 13:15;42,5
2016-12-06 13:30;49,95
2016-12-06 13:45;47,05
2016-12-06 14:00;46,55
2016-12-06 14:15;42,95
2016-12-06 14:30;40,2
2016-12-06 14:45;41,7
2016-12-06 15:00;40,95
2016-12-06 15:15;36,9
2016-12-06 15:30;41,05
2016-12-06 15:45;39,6
2016-12-06 16:00;37,15
2016-12-06 16:15;40,75
2016-12-06 16:30;42,55
2016-12-06 16:45;29,05
2016-12-06 17:00;33,3
2016-12-06 17:15;30,25
2016-12-06 17:30;24,35
2016-12-06 17:45;27,8
2016-12-06 18:00;22,7
2016-12-06 18:15;16,75
2016-12-06 18:30;19,55
2016-12-06 18:45;15,2
2016-12-06 19:00;15,55
2016-12-06 19:15;16,95
2016-12-06 19:30;20,4
2016-12-06 19:45;25,45
2016-12-06 20:00;25,4
2016-12-06 20:15;19,55
2016-12-06 20:30;21,25
2016-12-06 20:45;22,25
2016-12-06 21:00;22,9
2016-12-06 21:15;26,4
2016-12-06 21:30;25,55
2016-12-06 21:45;27,95
2016-12-06 22:00;27,1
2016-12-06 22:15;25,1
2016-12-06 22:30;22,6
2016-12-06 22:45;18
2016-12-06 23:00;19
2016-12-06 23:15;17,85
2016-12-06 23:30;15,25
2016-12-06 23:45;15,55
2016-12-07 00:00;16,9
2016-12-07 00:15;15,65
2016-12-07 00:30;14,45
2016-12-07 00:45;3,35
2016-12-07 01:00;1,6
2016-12-07 01:15;1,8
2016-12-07 01:30;3
2016-12-07 01:45;3,7
2016-12-07 02:00;4,4
2016-12-07 02:15;5,9
2016-12-07 02:30;5,2
2016-12-07 02:45;4,3
2016-12-07 03:00;6,05
2016-12-07 03:15;6,6
2016-12-07 03:30;8
2016-12-07 03:45;6,8
2016-12-07 04:00;7
2016-12-07 04:15;7,3
2016-12-07 04:30;8,3
2016-12-07 04:45;8,45
2016-12-07 05:00;7,6
2016-12-07 05:15;16,3
2016-12-07 05:30;22,45
2016-12-07 05:45;23,45
2016-12-07 06:00;20,9
2016-12-07 06:15;15,25
2016-12-07 06:30;11,45
2016-12-07 06:45;13,7
2016-12-07 07:00;12,45
2016-12-07 07:15;10,3
2016-12-07 07:30;9,15
2016-12-07 07:45;19,75
2016-12-07 08:00;18,75
2016-12-07 08:15;19,5
2016-12-07 08:30;23,05
2016-12-07 08:45;23,1
2016-12-07 09:00;27,6
2016-12-07 09:15;27,65
2016-12-07 09:30;33,35
2016-12-07 09:45;36,2
2016-12-07 10:00;33,15
2016-12-07 10:15;49,1
2016-12-07 10:30;52,05
2016-12-07 10:45;57,3
2016-12-07 11:00;52,15
2016-12-07 11:15;52,3
2016-12-07 11:30;42,1
2016-12-07 11:45;44,5
2016-12-07 12:00;43,1
2016-12-07 12:15;48,2
2016-12-07 12:30;44,35
2016-12-07 12:45;42,1
2016-12-07 13:00;38,4
2016-12-07 13:15;45,9
2016-12-07 13:30;41,45
2016-12-07 13:45;40,5
2016-12-07 14:00;35,95
2016-12-07 14:15;41,05
2016-12-07 14:30;41,3
2016-12-07 14:45;34,6
2016-12-07 15:00;36,1
2016-12-07 15:15;41,5
2016-12-07 15:30;42,25
2016-12-07 15:45;30,65
2016-12-07 16:00;35,45
2016-12-07 16:15;34,85
2016-12-07 16:30;37,05
2016-12-07 16:45;39,3
2016-12-07 17:00;31,4
2016-12-07 17:15;37,1
2016-12-07 17:30;29,15
2016-12-07 17:45;29
2016-12-07 18:00;37,1
2016-12-07 18:15;21,5
2016-12-07 18:30;22,5
2016-12-07 18:45;23,1
2016-12-07 19:00;16,7
2016-12-07 19:15;14,3
2016-12-07 19:30;15,4
2016-12-07 19:45;15,9
2016-12-07 20:00;12,85
2016-12-07 20:15;9,3
2016-12-07 20:30;7,35
2016-12-07 20:45;9,1
2016-12-07 21:00;11,4
2016-12-07 21:15;13,9
2016-12-07 21:30;13
2016-12-07 21:45;11,65
2016-12-07 22:00;11,5
2016-12-07 22:15;13,8
2016-12-07 22:30;11,2
2016-12-07 22:45;12,45
2016-12-07 23:00;13,05
2016-12-07 23:15;14,85
2016-12-07 23:30;15,35
2016-12-07 23:45;12,95
2016-12-08 00:00;12,65
2016-12-08 00:15;15,8
2016-12-08 00:30;13,2
2016-12-08 00:45;2
2016-12-08 01:00;1,85
2016-12-08 01:15;2,05
2016-12-08 01:30;2,85
2016-12-08 01:45;3,45
2016-12-08 02:00;2,2
2016-12-08 02:15;3,05
2016-12-08 02:30;3,35
2016-12-08 02:45;5,3
2016-12-08 03:00;4,1
2016-12-08 03:15;5,45
2016-12-08 03:30;5
2016-12-08 03:45;5
2016-12-08 04:00;5,8
2016-12-08 04:15;5,45
2016-12-08 04:30;5,45
2016-12-08 04:45;5,1
2016-12-08 05:00;4,55
2016-12-08 05:15;6,2
2016-12-08 05:30;7,3
2016-12-08 05:45;18,65
2016-12-08 06:00;21,7
2016-12-08 06:15;20,5
2016-12-08 06:30;16,8
2016-12-08 06:45;14
2016-12-08 07:00;11,2
2016-12-08 07:15;10,3
2016-12-08 07:30;12,15
2016-12-08 07:45;14,75
2016-12-08 08:00;19,5
2016-12-08 08:15;22,35
2016-12-08 08:30;29,3
2016-12-08 08:45;31,2
2016-12-08 09:00;32,85
2016-12-08 09:15;40
2016-12-08 09:30;41,9
2016-12-08 09:45;49,1
2016-12-08 10:00;47,05
2016-12-08 10:15;49,7
2016-12-08 10:30;49,5
2016-12-08 10:45;61,55
2016-12-08 11:00;66,3
2016-12-08 11:15;63,5
2016-12-08 11:30;66,5
2016-12-08 11:45;69,95
2016-12-08 12:00;57,2
2016-12-08 12:15;60,05
2016-12-08 12:30;61,85
2016-12-08 12:45;56,35
2016-12-08 13:00;67,9
2016-12-08 13:15;66,6
2016-12-08 13:30;60,8
2016-12-08 13:45;63,05
2016-12-08 14:00;60,4
2016-12-08 14:15;62,45
2016-12-08 14:30;69,2
2016-12-08 14:45;62,1
2016-12-08 15:00;64,3
2016-12-08 15:15;54,65
2016-12-08 15:30;51,45
2016-12-08 15:45;52,85
2016-12-08 16:00;54,35
2016-12-08 16:15;47,3
2016-12-08 16:30;49,75
2016-12-08 16:45;50,8
2016-12-08 17:00;45,15
2016-12-08 17:15;53,05
2016-12-08 17:30;43
2016-12-08 17:45;40,05
2016-12-08 18:00;28,6
2016-12-08 18:15;28,7
2016-12-08 18:30;25
2016-12-08 18:45;23,1
2016-12-08 19:00;28,6
2016-12-08 19:15;26,5
2016-12-08 19:30;22,3
2016-12-08 19:45;29,35
2016-12-08 20:00;29,2
2016-12-08 20:15;22,85
2016-12-08 20:30;21,35
2016-12-08 20:45;22,15
2016-12-08 21:00;19,1
2016-12-08 21:15;19,15
2016-12-08 21:30;18,1
2016-12-08 21:45;14,35
2016-12-08 22:00;13,65
2016-12-08 22:15;17,8
2016-12-08 22:30;13,55
2016-12-08 22:45;9,25
2016-12-08 23:00;10,45
2016-12-08 23:15;8,55
2016-12-08 23:30;3,6
2016-12-08 23:45;0,4
2016-12-09 00:00;0,8
2016-12-09 00:15;0,95
2016-12-09 00:30;1,6
2016-12-09 00:45;3,5
2016-12-09 01:00;2,1
2016-12-09 01:15;4,8
2016-12-09 01:30;3,7
2016-12-09 01:45;7,4
2016-12-09 02:00;6,15
2016-12-09 02:15;1,35
2016-12-09 02:30;0,3
2016-12-09 02:45;0,2
2016-12-09 03:00;2,5
2016-12-09 03:15;3,3
2016-12-09 03:30;4,65
2016-12-09 03:45;4,35
2016-12-09 04:00;5,8
2016-12-09 04:15;5,75
2016-12-09 04:30;5
2016-12-09 04:45;6,5
2016-12-09 05:00;5,25
2016-12-09 05:15;7,1
2016-12-09 05:30;10,6
2016-12-09 05:45;12,45
2016-12-09 06:00;12,55
2016-12-09 06:15;21,45
2016-12-09 06:30;26,1
2016-12-09 06:45;23,65
2016-12-09 07:00;18,65
2016-12-09 07:15;20,2
2016-12-09 07:30;22,8
2016-12-09 07:45;24,35
2016-12-09 08:00;29,4
2016-12-09 08:15;28,55
2016-12-09 08:30;28,2
2016-12-09 08:45;30,05
2016-12-09 09:00;30,75
2016-12-09 09:15;32,15
2016-12-09 09:30;38,9
2016-12-09 09:45;44,4
2016-12-09 10:00;48,35
2016-12-09 10:15;57,25
2016-12-09 10:30;42,7
2016-12-09 10:45;51,2
2016-12-09 11:00;56,5
2016-12-09 11:15;58,65
2016-12-09 11:30;56,25
2016-12-09 11:45;47,05
2016-12-09 12:00;52,35
2016-12-09 12:15;51
2016-12-09 12:30;55,85
2016-12-09 12:45;56,45
2016-12-09 13:00;54,5
2016-12-09 13:15;53,2
2016-12-09 13:30;59,3
2016-12-09 13:45;54,7
2016-12-09 14:00;42,5
2016-12-09 14:15;53,7
2016-12-09 14:30;50,6
2016-12-09 14:45;40,7
2016-12-09 15:00;38,25
2016-12-09 15:15;33,6
2016-12-09 15:30;36,8
2016-12-09 15:45;34,55
2016-12-09 16:00;33,65
2016-12-09 16:15;29,6
2016-12-09 16:30;38,05
2016-12-09 16:45;38,6
2016-12-09 17:00;35,2
2016-12-09 17:15;31,6
2016-12-09 17:30;26,5
2016-12-09 17:45;27,05
2016-12-09 18:00;25,25
2016-12-09 18:15;27
2016-12-09 18:30;18,6
2016-12-09 18:45;15,95
2016-12-09 19:00;18,3
2016-12-09 19:15;14,5
2016-12-09 19:30;16,75
2016-12-09 19:45;14,1
2016-12-09 20:00;12,3
2016-12-09 20:15;14,5
2016-12-09 20:30;14,5
2016-12-09 20:45;13
2016-12-09 21:00;15,5
2016-12-09 21:15;16,25
2016-12-09 21:30;12,3
2016-12-09 21:45;11,45
2016-12-09 22:00;12,45
2016-12-09 22:15;11,1
2016-12-09 22:30;13,25
2016-12-09 22:45;11,75
2016-12-09 23:00;10
2016-12-09 23:15;4,45
2016-12-09 23:30;2,4
2016-12-09 23:45;0
2016-12-10 00:00;0,1
2016-12-10 00:15;0,5
2016-12-10 00:30;0
2016-12-10 00:45;0
2016-12-10 01:00;0
2016-12-10 01:15;0,1
2016-12-10 01:30;0
2016-12-10 01:45;0
2016-12-10 02:00;0
2016-12-10 02:15;0
2016-12-10 02:30;0
2016-12-10 02:45;0
2016-12-10 03:00;0,1
2016-12-10 03:15;2,3
2016-12-10 03:30;4,45
2016-12-10 03:45;3,65
2016-12-10 04:00;5,1
2016-12-10 04:15;5,7
2016-12-10 04:30;5,4
2016-12-10 04:45;6
2016-12-10 05:00;5,6
2016-12-10 05:15;6,25
2016-12-10 05:30;5,7
2016-12-10 05:45;5,55
2016-12-10 06:00;6,3
2016-12-10 06:15;5,2
2016-12-10 06:30;4,15
2016-12-10 06:45;4,25
2016-12-10 07:00;5,25
2016-12-10 07:15;2,75
2016-12-10 07:30;1,7
2016-12-10 07:45;2,2
2016-12-10 08:00;3,8
2016-12-10 08:15;4,25
2016-12-10 08:30;5,05
2016-12-10 08:45;3,7
2016-12-10 09:00;2,4
2016-12-10 09:15;1,7
2016-12-10 09:30;4,75
2016-12-10 09:45;7,7
2016-12-10 10:00;7,85
2016-12-10 10:15;5,95
2016-12-10 10:30;6,7
2016-12-10 10:45;15,65
2016-12-10 11:00;3,3
2016-12-10 11:15;8,8
2016-12-10 11:30;5,3
2016-12-10 11:45;7,95
2016-12-10 12:00;4,65
2016-12-10 12:15;9,1
2016-12-10 12:30;2,4
2016-12-10 12:45;5,7
2016-12-10 13:00;1,6
2016-12-10 13:15;0,85
2016-12-10 13:30;3,3
2016-12-10 13:45;0
2016-12-10 14:00;2,35
2016-12-10 14:15;6,1
2016-12-10 14:30;6,65
2016-12-10 14:45;6,3
2016-12-10 15:00;6,55
2016-12-10 15:15;6
2016-12-10 15:30;7,6
2016-12-10 15:45;5,75
2016-12-10 16:00;7,5
2016-12-10 16:15;7,4
2016-12-10 16:30;4,45
2016-12-10 16:45;3,25
2016-12-10 17:00;3,55
2016-12-10 17:15;4,95
2016-12-10 17:30;3,95
2016-12-10 17:45;2,3
2016-12-10 18:00;1,4
2016-12-10 18:15;1,15
2016-12-10 18:30;1,95
2016-12-10 18:45;2,05
2016-12-10 19:00;3,25
2016-12-10 19:15;3,7
2016-12-10 19:30;1,95
2016-12-10 19:45;1,6
2016-12-10 20:00;2,9
2016-12-10 20:15;3
2016-12-10 20:30;2,45
2016-12-10 20:45;7,7
2016-12-10 21:00;8,3
2016-12-10 21:15;8,8
2016-12-10 21:30;10,2
2016-12-10 21:45;8
2016-12-10 22:00;7,15
2016-12-10 22:15;6,1
2016-12-10 22:30;5,45
2016-12-10 22:45;6
2016-12-10 23:00;6,25
2016-12-10 23:15;4,75
2016-12-10 23:30;0,9
2016-12-10 23:45;0,1
2016-12-11 00:00;0,05
2016-12-11 00:15;0
2016-12-11 00:30;0,25
2016-12-11 00:45;0,45
2016-12-11 01:00;1,5
2016-12-11 01:15;2,25
2016-12-11 01:30;1,4
2016-12-11 01:45;1,8
2016-12-11 02:00;1,85
2016-12-11 02:15;1,8
2016-12-11 02:30;1,75
2016-12-11 02:45;2,4
2016-12-11 03:00;2,15
2016-12-11 03:15;2,35
2016-12-11 03:30;3,1
2016-12-11 03:45;2,1
2016-12-11 04:00;4,35
2016-12-11 04:15;5,15
2016-12-11 04:30;5,6
2016-12-11 04:45;5,6
2016-12-11 05:00;3,7
2016-12-11 05:15;5,2
2016-12-11 05:30;3,3
2016-12-11 05:45;5,55
2016-12-11 06:00;5,55
2016-12-11 06:15;6,4
2016-12-11 06:30;5,3
2016-12-11 06:45;3,75
2016-12-11 07:00;4,35
2016-12-11 07:15;3,35
2016-12-11 07:30;2,5
2016-12-11 07:45;3,55
2016-12-11 08:00;3
2016-12-11 08:15;2,9
2016-12-11 08:30;9
2016-12-11 08:45;7,1
2016-12-11 09:00;6,45
2016-12-11 09:15;4,3
2016-12-11 09:30;3,1
2016-12-11 09:45;4,35
2016-12-11 10:00;2,6
2016-12-11 10:15;1,3
2016-12-11 10:30;0,65
2016-12-11 10:45;0,6
2016-12-11 11:00;0,15
2016-12-11 11:15;1,4
2016-12-11 11:30;6,5
2016-12-11 11:45;6,05
2016-12-11 12:00;9,35
2016-12-11 12:15;8,1
2016-12-11 12:30;7,9
2016-12-11 12:45;3,55
2016-12-11 13:00;4,05
2016-12-11 13:15;2,6
2016-12-11 13:30;3,75
2016-12-11 13:45;4,25
2016-12-11 14:00;4,8
2016-12-11 14:15;3,9
2016-12-11 14:30;6
2016-12-11 14:45;6,85
2016-12-11 15:00;7,95
2016-12-11 15:15;6,4
2016-12-11 15:30;7,3
2016-12-11 15:45;6,85
2016-12-11 16:00;6,6
2016-12-11 16:15;5,9
2016-12-11 16:30;7,7
2016-12-11 16:45;7,9
2016-12-11 17:00;8,15
2016-12-11 17:15;7,95
2016-12-11 17:30;5,2
2016-12-11 17:45;2,8
2016-12-11 18:00;1,85
2016-12-11 18:15;3
2016-12-11 18:30;2,25
2016-12-11 18:45;2,15
2016-12-11 19:00;1,6
2016-12-11 19:15;0,95
2016-12-11 19:30;1,55
2016-12-11 19:45;1,45
2016-12-11 20:00;0,95
2016-12-11 20:15;0,8
2016-12-11 20:30;1
2016-12-11 20:45;0,8
2016-12-11 21:00;0,05
2016-12-11 21:15;0,05
2016-12-11 21:30;0,2
2016-12-11 21:45;0,9
2016-12-11 22:00;1,85
2016-12-11 22:15;4,05
2016-12-11 22:30;2,6
2016-12-11 22:45;1,8
2016-12-11 23:00;3,8
2016-12-11 23:15;1,45
2016-12-11 23:30;1,3
2016-12-11 23:45;2,35

